LiveATC.Net - Listen to live air traffic control over the Internet!

ICAO: YBOK  IATA: OKY   Airport: Oakey Airport
City: Oakey   State/Province: Queensland
Country: Australia   Continent: Oceania
YBBN METAR Weather: YBBN 221900Z 28007KT 9999 -DZ FEW015 SCT068 BKN110 15/13 Q1014 FM2000 21010KT CAVOK
YBOK Flight Activity (FlightAware)
YBOK Del/Gnd/Twr/App
Feed Status: UP   Listeners: 0
Listen right in your browser - requires Flash (in browser, requires Flash)
Click here to listen with your own player (launches your MP3 player)
YBOK Del/Gnd/Twr/App Audio Archives
Brisbane Center/FSS121.200
Oakey Approach123.700
Oakey Approach125.400
Oakey Approach (Final)135.850
Oakey Clearance Delivery133.350
Oakey CTAF (+YTWB/YBWW)127.650
Oakey Ground121.900
Oakey Tower120.100


Unauthorized use prohibited. See Terms of Service

Find LiveATC Audio Streams

Airport/ARTCC Code

(e.g., 124.400, 128.75)
Site-wide search

Browse LiveATC Feeds
LiveATC Coverage Map
Top 50 LiveATC Feeds
Bad Weather Areas

Offer a LiveATC Feed
Press Inquiries

LiveATC on iPhone
LiveATC on Android

Windows Phone
Windows 8/10

LiveATC Mobile
(Mobile browser)

ATC Audio Archives
Interesting Recordings

LiveATC Forums

Home Page
Make a Donation
LiveATC Store

Terms of Use
Privacy Policy

Canadian Air Freqs


FAA Airport Status
Nat'l Airspace Status
Arrival Demand Charts

Server Software By: